User: anonymous   Login
Location: Kosice
(0.0000°N, 21.2500°E)
Time: 09:43:39
(UTC+02:00)
Language:

Palapa 6 Rocket - Orbit

View from above orbital plane
View from above orbital plane
View from above satellite
View from above satellite

Ground track
Ground track

The orbit data is extracted from the following two-line orbital elements,

1 20571U 90034B   21104.48573923  .00000639  00000-0  48067-4 0  9997
2 20571  22.7452 112.8194 0506184  19.5784 342.3400 14.12588774590279
Epoch (UTC): 14 April 2021 11:39:27
Eccentricity: 0.0506184
inclination: 22.7452°
perigee height: 484 km
apogee height: 1216 km
right ascension of ascending node: 112.8194°
argument of perigee: 19.5784°
revolutions per day: 14.12588774
mean anomaly at epoch: 342.3400°
orbit number at epoch: 59027

The dashed part of the orbit path shows where the satellite is in the earth's shadow,  

DLR